Location: Bakov nad Jizerou
(50.4784°N, 14.9394°E)
Time: 08:34:42
(UTC+00:00)

SL-16 R/B - Pass Details

Date: 16 June 2021
Orbit: 842 x 847 km, 71.0° (Epoch: 04 August)

Event Time Altitude Azimuth Distance (km) Brightness Sun altitude
Exits shadow 23:20:47 25° 180° (S) 1,632 3.1 -16.0°
Maximum altitude 23:23:55 56° 112° (ESE) 1,003 2.5 -16.0°
Drops below altitude 10° 23:29:27 10° 36° (NE) 2,474 5.6 -15.9°
Sets 23:31:57 0° 32° (NNE) 3,412 6.6 -15.8°
